Regional Weather Roundup
Issued by NWS Little Rock, AR

Home | Current Version | Previous Version | Graphics & Text | Print | Product List | Glossary On
Versions: 1 2 3 4 5 6 7 8 9 10 11 12 13 14 15 16 17 18 19 20 21 22 23 24 25 26 27 28 29 30 31 32 33 34 35 36 37 38 39 40 41 42 43 44 45 46 47 48 49 50
000
ASUS44 KLZK 260905
RWRLZK

WEATHER ROUNDUP FOR ARKANSAS
NATIONAL WEATHER SERVICE LITTLE ROCK AR
300 AM CST FRI DEC 26 2014

NOTE: "FAIR" INDICATES FEW OR NO CLOUDS BELOW 12,000 FEET WITH NO
SIGNIFICANT WEATHER AND/OR OBSTRUCTIONS TO VISIBILITY.

ARZ001-003-010-029-261000-
NORTHWEST ARKANSAS

CITY           SKY/WX    TMP DP  RH WIND       PRES   REMARKS
FAYETTEVILLE   MOCLDY    46  37  71 S16       29.98R
FORT SMITH     MOCLDY    39  33  79 NE3       30.02R
HARRISON       PTCLDY    43  36  76 SE9       30.00R
BENTONVILLE    MOCLDY    46  34  61 S13       29.97R
ROGERS         MOCLDY    46  36  68 S14       29.97R
SILOAM SPGS    PTCLDY    46  34  61 S14       29.97S
HIGHFILL       PTCLDY    46  37  71 S13       29.95R
$$

ARZ004-005-016-261000-
NORTH CENTRAL ARKANSAS

CITY           SKY/WX    TMP DP  RH WIND       PRES   REMARKS
BATESVILLE     PTCLDY    45  36  70 S8        30.11R
FLIPPIN        CLEAR     45  34  65 S8        30.02S
MTN HOME       CLEAR     43  36  76 S10       30.03R
$$

ARZ040-041-261000-
WEST CENTRAL ARKANSAS

CITY           SKY/WX    TMP DP  RH WIND       PRES   REMARKS
MENA           CLOUDY    52  45  76 S3        30.05S
MOUNT IDA      MOCLDY    50  42  74 MISG      30.05R
$$

ARZ009-017-025-026-028-261000-
NORTHEAST ARKANSAS

CITY           SKY/WX    TMP DP  RH WIND       PRES   REMARKS
CORNING        FAIR      41  36  81 S8        30.14R
JONESBORO      PTCLDY    38  35  89 S3        30.15R
NEWPORT        PTCLDY    40  36  86 SE12      30.14S
WALNUT RIDGE   PTCLDY    39  34  81 S8        30.13R
BLYTHEVILLE    PTCLDY    41  36  82 S10       30.18R
$$

ARZ022-023-033-042-044-261000-
CENTRAL ARKANSAS

CITY           SKY/WX    TMP DP  RH WIND       PRES   REMARKS
LITTLE ROCK    PTCLDY    44  36  73 S3        30.14R
N LITTLE ROCK    N/A     43  39  85 S5        30.14R
JACKSONVILLE   CLEAR     36  34  90 CALM      30.13R
SEARCY         MOCLDY    42  36  79 S5        30.14S
HOT SPRINGS    CLOUDY    46  40  79 S5        30.11R
RUSSELLVILLE   CLEAR     44  37  76 SE3       30.07R
CLINTON        MOCLDY    36  36 100 CALM      30.11R
$$

ARZ036-261000-
EAST ARKANSAS

CITY           SKY/WX    TMP DP  RH WIND       PRES   REMARKS
WEST MEMPHIS   MOCLDY    42  37  82 S10       30.17R
$$

ARZ050-053-066-070-073-261000-
SOUTHWEST ARKANSAS

CITY           SKY/WX    TMP DP  RH WIND       PRES   REMARKS
ARKADELPHIA    FAIR      38  38 100 CALM      30.13R
CAMDEN         CLOUDY    41  36  81 MISG      30.14R
TEXARKANA      PTCLDY    43  41  93 SE6       30.09R
EL DORADO      CLOUDY    44  38  79 CALM      30.14R
DE QUEEN       CLOUDY    44  40  85 E7        30.07R
$$

ARZ056-057-069-261000-
SOUTHEAST ARKANSAS

CITY           SKY/WX    TMP DP  RH WIND       PRES   REMARKS
PINE BLUFF     CLOUDY    44  36  73 S9        30.15R
STUTTGART      CLOUDY    43  36  75 SE10      30.15R
MONTICELLO     PTCLDY    40  35  83 S6        30.16R

$$





USA.gov is the U.S. government's official web portal to all federal, state and local government web resources and services.